Du Bois, PA

12:54 PM EDT on May 21, 2018 (GMT -0400)
Du Bois-Jefferson County

Weather History for KDUJ - August, 2013

Change the Weather History Date:

Thursday, August 15, 2013

  Actual Average Record
Temperature  
Mean Temperature 58 °F 68 °F  
Max Temperature 70 °F 78 °F 90 °F (1965)
Min Temperature 46 °F 57 °F 44 °F (1962)
Degree Days  
Heating Degree Days 7 1  
Month to date heating degree days 22 15  
Since 1 June heating degree days 73 124  
Since 1 July heating degree days 35 39  
Cooling Degree Days 0 4  
Month to date cooling degree days 35 60  
Year to date cooling degree days 402 285  
Since 1 June cooling degree days 343 262  
Growing Degree Days 8 (Base 50)    
Moisture  
Dew Point 48 °F    
Average Humidity 69    
Maximum Humidity 93    
Minimum Humidity 44    
Precipitation  
Precipitation 0.00 in 0.13 in 0.93 in (1976)
Month to date precipitation 2.00 1.89  
Year to date precipitation 27.49  
Sea Level Pressure  
Sea Level Pressure 30.17 in    
Wind  
Wind Speed 2 mph (SW)    
Max Wind Speed 7 mph    
Max Gust Speed 16 mph    
Visibility 10 miles    
Events      
T = Trace of Precipitation, MM = Missing Value Source: NWS Daily Summary

Daily Weather History Graph

Daily Weather History Graph

Search for Another Location

Airport or City:

Astronomy

Aug. 15, 2013 Rise Set
Actual Time 6:25 AM EDT 8:14 PM EDT
Civil Twilight 5:55 AM EDT 8:43 PM EDT
Nautical Twilight 5:19 AM EDT 9:19 PM EDT
Astronomical Twilight 4:40 AM EDT 9:57 PM EDT
Moon 3:30 PM EDT (8/15) 12:32 AM EDT (8/15)
Length of Visible Light 14h 47m
Length of Day
13h 48m
Waxing Gibbous, 64% of the Moon is Illuminated
Aug 15
Waxing Gibbous
Aug 20
Full
Aug 28
Last Quarter
Sep 5
New
Sep 12
First Quarter

Hourly Weather History & Observations

Time (EDT) Temp. Dew Point Humidity Pressure Visibility Wind Dir Wind Speed Gust Speed Precip Events Conditions
12:56 AM 48.9 °F 46.0 °F 90% 30.15 in 10.0 mi SW 3.5 mph - N/A   Clear
1:56 AM 48.9 °F 45.0 °F 86% 30.15 in 10.0 mi SW 3.5 mph - N/A   Clear
2:56 AM 48.9 °F 46.0 °F 90% 30.16 in 10.0 mi WSW 3.5 mph - N/A   Clear
3:56 AM 48.0 °F 45.0 °F 89% 30.16 in 10.0 mi Calm Calm - N/A   Clear
4:56 AM 48.9 °F 45.0 °F 86% 30.16 in 9.0 mi Calm Calm - N/A   Clear
5:56 AM 46.9 °F 44.1 °F 90% 30.17 in 6.0 mi Calm Calm - N/A   Clear
6:56 AM 48.0 °F 45.0 °F 89% 30.19 in 6.0 mi Calm Calm - N/A   Clear
7:56 AM 53.1 °F 48.9 °F 86% 30.19 in 10.0 mi Calm Calm - N/A   Clear
8:56 AM 55.9 °F 51.1 °F 84% 30.21 in 10.0 mi SW 4.6 mph - N/A   Clear
9:56 AM 61.0 °F 51.1 °F 70% 30.20 in 10.0 mi SW 4.6 mph - N/A   Clear
10:56 AM 64.9 °F 46.0 °F 50% 30.20 in 10.0 mi Calm Calm - N/A   Clear
11:56 AM 66.0 °F 46.0 °F 48% 30.19 in 10.0 mi South 6.9 mph - N/A   Clear
12:56 PM 66.9 °F 45.0 °F 45% 30.19 in 10.0 mi Variable 3.5 mph - N/A   Scattered Clouds
1:56 PM 68.0 °F 46.0 °F 45% 30.17 in 10.0 mi SW 3.5 mph - N/A   Scattered Clouds
2:56 PM 70.0 °F 46.9 °F 44% 30.15 in 10.0 mi Calm Calm - N/A   Partly Cloudy
3:56 PM 68.0 °F 48.0 °F 49% 30.14 in 10.0 mi Variable 6.9 mph - N/A   Partly Cloudy
4:56 PM 68.0 °F 48.0 °F 49% 30.13 in 10.0 mi Calm Calm - N/A   Scattered Clouds
5:56 PM 66.9 °F 48.9 °F 52% 30.14 in 10.0 mi West 4.6 mph - N/A   Mostly Cloudy
6:56 PM 66.0 °F 50.0 °F 56% 30.14 in 10.0 mi West 3.5 mph - N/A   Clear
7:56 PM 64.9 °F 50.0 °F 58% 30.14 in 10.0 mi Calm Calm - N/A   Clear
8:56 PM 59.0 °F 53.1 °F 81% 30.16 in 10.0 mi Calm Calm - N/A   Clear
9:56 PM 55.9 °F 51.1 °F 84% 30.17 in 10.0 mi Calm Calm - N/A   Clear
10:56 PM 55.0 °F 50.0 °F 83% 30.16 in 10.0 mi Calm Calm - N/A   Clear
11:56 PM 55.9 °F 50.0 °F 80% 30.16 in 10.0 mi Calm Calm - N/A   Clear